Hourly Data Report for January 08, 2021

CARBERRY CS
MANITOBA
Current Station Operator: ECCC - MSC

49°54'20.900" N
99°21'26.800" W
383.50 m
5010547
71170
WZE

Download Data

Hourly Data (January 2021)
Hourly Data Report for January 8, 2021
TIME
LST
Temp Definition
°C
Dew Point Definition
°C
Rel Hum Definition
%
Precip. Amount Definition
mm

Wind Dir Definition
10's deg

Wind Spd Definition
km/h
Visibility Definition
km
Stn Press Definition
kPa
Hmdx Definition


Wind Chill Definition


Weather Definition


00:00 -0.6 -1.7 92 0.0 24 6   98.04   -3 LegendNANA
01:00 -0.9 -1.9 93 0.0 25 5   98.04   -3 LegendNANA
02:00 -2.9 -3.0 100 0.0 29 7   98.12   -6 LegendNANA
03:00 -4.8 -4.8 100 0.0 26 3   98.18   -6 LegendNANA
04:00 -6.5 -6.6 100 0.0 20 4   98.15   -8 LegendNANA
05:00 -7.9 -7.9 100 0.0 0 1   98.16   -8 LegendNANA
06:00 -9.2 -9.5 98 0.0 29 5   98.17   -12 LegendNANA
07:00 -10.0 -10.5 96 0.0 30 6   98.20   -14 LegendNANA
08:00 -10.2 -10.5 98 0.0 32 5   98.23   -13 LegendNANA
09:00 -10.4 -11.0 95 0.0 26 3   98.29   -12 LegendNANA
10:00 -10.9 -11.8 93 0.0 30 2   98.33   -12 LegendNANA
11:00 -8.7 -9.6 93 0.0 13 3   98.33   -10 LegendNANA
12:00 -6.2 -7.0 94 0.0 18 3   98.30   -8 LegendNANA
13:00 -4.3 -5.4 93 0.0 18 4   98.25   -6 LegendNANA
14:00 -3.5 -6.3 80 0.0 17 4   98.20   -5 LegendNANA
15:00 -2.9 -5.9 80 0.2 16 2   98.20   -4 LegendNANA
16:00 -4.0 -5.9 87 0.0 15 5   98.19   -6 LegendNANA
17:00 -6.2 -7.7 89 0.0 22 5   98.21   -9 LegendNANA
18:00 -9.7 -10.0 98 0.0 19 8   98.25   -14 LegendNANA
19:00 -9.5 -9.5 100 0.0 20 9   98.29   -14 LegendNANA
20:00 -9.4 -9.6 99 0.0 19 8   98.31   -14 LegendNANA
21:00 -8.9 -9.2 98 0.0 20 8   98.28   -13 LegendNANA
22:00 -10.2 -10.9 95 0.0 21 9   98.28   -15 LegendNANA
23:00 -11.0 -12.0 93 0.0 23 8   98.29   -16 LegendNANA

Notes on Data Quality.

Legend

  • E = Estimated
  • M = Missing
  • NA = Not Available*
  • [empty] = Indicates an unobserved value
Date modified: